Weather History for KM40 - March, 2014

Change the Weather History Date:

Wednesday, March 5, 2014

  Actual Average (KCBM) Record (KCBM)
Temperature  
Mean Temperature 46 °F -  
Max Temperature 64 °F 60 °F 82 °F (1997)
Min Temperature 28 °F 40 °F 23 °F (2002)
Degree Days  
Heating Degree Days 19    
Moisture  
Dew Point 32 °F    
Average Humidity 58    
Maximum Humidity 65    
Minimum Humidity 52    
Precipitation  
Precipitation 0.00 in - - ()
Sea Level Pressure  
Sea Level Pressure 30.13 in    
Wind  
Wind Speed 2 mph (North)    
Max Wind Speed 9 mph    
Max Gust Speed -    
Visibility 6 miles    
Events      
Averages and records for this station are not official NWS values.
T = Trace of Precipitation, MM = Missing Value Source: NWS Daily Summary

Daily Weather History Graph

Daily Weather History Graph

Search for Another Location

Airport or City:

Trip Planner

Search our weather history database for the weather conditions in past years. The results will help you decide how hot, cold, wet, or windy it might be!

Date:

Astronomy

Mar. 05, 2014 Rise Set
Actual Time 6:17 AM CST 5:53 PM CST
Civil Twilight 5:52 AM CST 6:18 PM CST
Nautical Twilight 5:23 AM CST 6:47 PM CST
Astronomical Twilight 4:54 AM CST 7:16 PM CST
Moon 8:57 AM CST (3/5) 10:47 PM CST (3/5)
Length of Visible Light 12h 26m
Length of Day
11h 36m
Waxing Crescent, 23% of the Moon is Illuminated
Mar 5
Waxing Crescent
Mar 8
First Quarter
Mar 16
Full
Mar 23
Last Quarter
Mar 30
New

Hourly Weather History & Observations

Time (CST) Temp. Windchill Dew Point Humidity Pressure Visibility Wind Dir Wind Speed Gust Speed Precip Events Conditions
12:15 AM 32.0 °F - 19.4 °F 60% 30.17 in 4.0 mi Calm Calm - N/A   Haze
12:35 AM 32.0 °F 28.7 °F 21.2 °F 64% 30.16 in 4.0 mi NE 3.5 mph - N/A   Haze
12:55 AM 32.0 °F 28.7 °F 19.4 °F 60% 30.16 in 4.0 mi NNW 3.5 mph - N/A   Haze
1:15 AM 32.0 °F - 19.4 °F 60% 30.17 in 4.0 mi Calm Calm - N/A   Haze
1:35 AM 32.0 °F - 19.4 °F 60% 30.16 in 3.0 mi Calm Calm - N/A   Haze
1:55 AM 30.2 °F - 19.4 °F 64% 30.15 in 1.2 mi Calm Calm - N/A   Haze
2:15 AM 30.2 °F - 17.6 °F 60% 30.14 in 4.0 mi Calm Calm - N/A   Haze
2:35 AM 30.2 °F - 17.6 °F 60% 30.14 in 1.0 mi Calm Calm - N/A   Haze
2:55 AM 28.4 °F - 15.8 °F 59% 30.13 in 3.0 mi Calm Calm - N/A   Haze
3:15 AM 30.2 °F - 17.6 °F 60% 30.14 in 0.2 mi Calm Calm - N/A   Haze
3:35 AM 30.2 °F - 17.6 °F 60% 30.13 in 1.2 mi Calm Calm - N/A   Haze
3:55 AM 30.2 °F - 19.4 °F 64% 30.13 in 3.0 mi Calm Calm - N/A   Haze
4:15 AM 32.0 °F - 19.4 °F 60% 30.13 in 3.0 mi Calm Calm - N/A   Haze
4:35 AM 32.0 °F - 19.4 °F 60% 30.15 in 4.0 mi Calm Calm - N/A   Haze
4:55 AM 32.0 °F - 19.4 °F 60% 30.15 in 3.0 mi Calm Calm - N/A   Haze
5:15 AM 32.0 °F - 19.4 °F 60% 30.16 in 3.0 mi Calm Calm - N/A   Haze
5:35 AM 32.0 °F - 19.4 °F 60% 30.16 in 4.0 mi Calm Calm - N/A   Haze
5:55 AM 32.0 °F - 19.4 °F 60% 30.17 in 3.0 mi Calm Calm - N/A   Haze
6:15 AM 30.2 °F - 19.4 °F 64% 30.17 in 3.0 mi Calm Calm - N/A   Haze
6:35 AM 30.2 °F - 17.6 °F 60% 30.17 in 1.0 mi Calm Calm - N/A   Haze
6:55 AM 30.2 °F - 17.6 °F 60% 30.17 in 1.5 mi Calm Calm - N/A   Haze
7:15 AM 30.2 °F - 17.6 °F 60% 30.17 in 2.0 mi Calm Calm - N/A   Haze
7:35 AM 32.0 °F - 21.2 °F 64% 30.17 in 1.8 mi Calm Calm - N/A   Haze
7:55 AM 33.8 °F 30.8 °F 21.2 °F 60% 30.17 in 1.8 mi North 3.5 mph - N/A   Haze
8:15 AM 35.6 °F - 24.8 °F 65% 30.17 in 2.5 mi Calm Calm - N/A   Haze
8:35 AM 39.2 °F - 28.4 °F 65% 30.18 in 3.0 mi Calm Calm - N/A   Haze
8:55 AM 42.8 °F 41.1 °F 30.2 °F 61% 30.17 in 4.0 mi NE 3.5 mph - N/A   Haze
9:15 AM 46.4 °F 44.3 °F 32.0 °F 57% 30.16 in 5.0 mi ESE 4.6 mph - N/A   Haze
9:35 AM 48.2 °F - 33.8 °F 58% 30.16 in 5.0 mi ESE 4.6 mph - N/A   Haze
9:55 AM 51.8 °F - 35.6 °F 54% 30.17 in 7.0 mi South 4.6 mph - N/A   Clear
10:15 AM 51.8 °F - 35.6 °F 54% 30.18 in 8.0 mi Calm Calm - N/A   Clear
10:35 AM 55.4 °F - 39.2 °F 54% 30.18 in 8.0 mi Calm Calm - N/A   Clear
10:55 AM 57.2 °F - 41.0 °F 55% 30.19 in 7.0 mi Calm Calm - N/A   Scattered Clouds
11:15 AM 57.2 °F - 41.0 °F 55% 30.17 in 8.0 mi South 3.5 mph - N/A   Scattered Clouds
11:35 AM 57.2 °F - 41.0 °F 55% 30.16 in 8.0 mi ENE 3.5 mph - N/A   Partly Cloudy
11:55 AM 59.0 °F - 42.8 °F 55% 30.15 in 7.0 mi West 3.5 mph - N/A   Clear
12:15 PM 60.8 °F - 44.6 °F 55% 30.14 in 9.0 mi Calm Calm - N/A   Clear
12:35 PM 60.8 °F - 44.6 °F 55% 30.13 in 9.0 mi NNE 5.8 mph - N/A   Clear
12:55 PM 60.8 °F - 44.6 °F 55% 30.13 in 8.0 mi NNE 3.5 mph - N/A   Clear
1:15 PM 62.6 °F - 46.4 °F 55% 30.11 in 8.0 mi North 5.8 mph - N/A   Clear
1:35 PM 62.6 °F - 46.4 °F 55% 30.10 in 9.0 mi Calm Calm - N/A   Clear
1:55 PM 62.6 °F - 46.4 °F 55% 30.09 in 8.0 mi ESE 3.5 mph - N/A   Clear
2:15 PM 62.6 °F - 46.4 °F 55% 30.10 in 9.0 mi NNW 6.9 mph - N/A   Clear
2:35 PM 62.6 °F - 46.4 °F 55% 30.09 in 9.0 mi NE 3.5 mph - N/A   Clear
2:55 PM 64.4 °F - 46.4 °F 52% 30.07 in 9.0 mi NNW 8.1 mph - N/A   Clear
3:15 PM 64.4 °F - 46.4 °F 52% 30.07 in 8.0 mi North 3.5 mph - N/A   Clear
3:35 PM 62.6 °F - 46.4 °F 55% 30.05 in 9.0 mi NNE 6.9 mph - N/A   Clear
3:55 PM 62.6 °F - 46.4 °F 55% 30.05 in 9.0 mi North 5.8 mph - N/A   Clear
4:15 PM 62.6 °F - 46.4 °F 55% 30.05 in 8.0 mi North 6.9 mph - N/A   Clear
4:35 PM 62.6 °F - 46.4 °F 55% 30.05 in 8.0 mi North 6.9 mph - N/A   Clear
4:55 PM 60.8 °F - 44.6 °F 55% 30.05 in 9.0 mi North 5.8 mph - N/A   Clear
5:15 PM 60.8 °F - 42.8 °F 52% 30.06 in 10.0 mi NNW 3.5 mph - N/A   Clear
5:35 PM 57.2 °F - 42.8 °F 59% 30.07 in 9.0 mi NW 3.5 mph - N/A   Clear
5:55 PM 55.4 °F - 39.2 °F 54% 30.09 in 9.0 mi Calm Calm - N/A   Clear
6:15 PM 53.6 °F - 37.4 °F 54% 30.09 in 9.0 mi Calm Calm - N/A   Clear
6:35 PM 51.8 °F - 37.4 °F 58% 30.09 in 10.0 mi Calm Calm - N/A   Clear
6:55 PM 51.8 °F - 35.6 °F 54% 30.09 in 10.0 mi North 6.9 mph - N/A   Clear
7:15 PM 51.8 °F - 35.6 °F 54% 30.09 in 10.0 mi NNW 3.5 mph - N/A   Clear
7:35 PM 51.8 °F - 35.6 °F 54% 30.09 in 10.0 mi NNW 6.9 mph - N/A   Clear
7:55 PM 50.0 °F - 33.8 °F 54% 30.09 in 10.0 mi North 8.1 mph - N/A   Clear
8:15 PM 50.0 °F - 33.8 °F 54% 30.09 in 8.0 mi North 6.9 mph - N/A   Clear
8:35 PM 48.2 °F - 33.8 °F 58% 30.10 in 10.0 mi NNW 6.9 mph - N/A   Clear
8:55 PM 48.2 °F - 33.8 °F 58% 30.10 in 10.0 mi North 6.9 mph - N/A   Clear
9:15 PM 48.2 °F - 32.0 °F 54% 30.10 in 8.0 mi North 8.1 mph - N/A   Clear
9:35 PM 46.4 °F 41.9 °F 32.0 °F 57% 30.11 in 9.0 mi North 9.2 mph - N/A   Clear
9:55 PM 46.4 °F 42.4 °F 32.0 °F 57% 30.11 in 8.0 mi North 8.1 mph - N/A   Clear
10:15 PM 44.6 °F 40.2 °F 32.0 °F 61% 30.12 in 8.0 mi North 8.1 mph - N/A   Clear
10:35 PM 44.6 °F 40.2 °F 30.2 °F 57% 30.13 in 9.0 mi NNW 8.1 mph - N/A   Clear
10:55 PM 44.6 °F 41.4 °F 30.2 °F 57% 30.13 in 8.0 mi NNW 5.8 mph - N/A   Clear
11:15 PM 42.8 °F 39.3 °F 28.4 °F 57% 30.13 in 8.0 mi NNW 5.8 mph - N/A   Clear
11:35 PM 42.8 °F 38.6 °F 28.4 °F 57% 30.12 in 8.0 mi North 6.9 mph - N/A   Clear
11:55 PM 41.0 °F 36.4 °F 28.4 °F 61% 30.11 in 7.0 mi North 6.9 mph - N/A   Clear